{"data":{"norad_id":67046,"epoch":"2026-09-20T09:19:30.272448Z","epoch_age_seconds":91934,"freshness":"FRESH","line1":"1 67046U 25294S   26263.38854482  .00014099  00000+0  52079-3 0  9994","line2":"2 67046  43.0037  18.7060 0001732 167.3093 192.7803 15.27587042 44577","mean_motion":15.27587042,"eccentricity":0.0001732,"inclination_deg":43.0037,"raan_deg":18.706,"arg_perigee_deg":167.3093,"mean_anomaly_deg":192.7803,"bstar":0.00052079,"rev_number":4457,"period_min":94.266314154817,"perigee_km":481.83965605961,"apogee_km":484.21636361902,"semimajor_km":6861.1650098393,"source":"CELESTRAK","updated_at":"2026-09-21T09:00:36.094391Z"}}